Regional Weather Roundup
Issued by NWS

Home | Current Version | Previous Version | Text Only | Print | Product List | Glossary On
Versions: 1 2 3 4 5 6 7 8 9 10 11 12 13 14 15 16 17 18 19 20 21 22 23 24 25 26 27 28 29 30 31 32 33 34 35 36 37 38 39 40 41 42 43 44 45 46 47 48 49 50
000
ASUS43 KDTX 272101
RWRMI
MICHIGAN HOURLY REGIONAL WEATHER ROUNDUP
NATIONAL WEATHER SERVICE DETROIT/PONTIAC MI
500 PM EDT WED AUG 27 2014

NOTE: "FAIR" INDICATES FEW OR NO CLOUDS BELOW 12,000 FEET WITH NO
SIGNIFICANT WEATHER AND/OR OBSTRUCTION TO VISIBILITY.

MIZ047>049-052>055-059>063-066>070-074>076-081>083-272200-
SOUTHEAST LOWER MICHIGAN

CITY           SKY/WX    TMP DP  RH WIND       PRES   REMARKS
ADRIAN         MOSUNNY   81  62  52 N9        30.09S
ALMA           MOSUNNY   75  57  53 W6        30.12S
ANN ARBOR      MOSUNNY   78  58  49 N8        30.09S
BAD AXE        MOSUNNY   71  54  53 NW9       30.12F
CARO           MOSUNNY   72  59  64 NW7       30.11F
DETROIT CITY   MOSUNNY   80  57  45 N7        30.08S
DETROIT        PTSUNNY   77  59  53 VRB7      30.08F
FLINT          MOSUNNY   75  57  53 NW9       30.11F
GROSSE ILE     MOSUNNY   79  61  53 NE9       30.06S
HILLSDALE      SUNNY     79  59  49 N7        30.12R
HOWELL         MOSUNNY   73  57  58 N5        30.12S

CITY           SKY/WX    TMP DP  RH WIND       PRES   REMARKS
JACKSON        MOSUNNY   75  60  59 NW7       30.12R
LAMBERTVILLE   MOSUNNY   81  59  47 N3        30.08S
LANSING        MOSUNNY   75  58  55 N8        30.12S
LAPEER         MOCLDY    74  55  51 N6        30.11F
MASON          MOSUNNY   74  59  60 N7        30.12R
MONROE         MOSUNNY   79  61  53 CALM      30.06S
MT. CLEMENS    PTSUNNY   76  57  52 N8        30.07F
PONTIAC        PTSUNNY   74  55  51 N8        30.10S
PORT HOPE        N/A     70  54  56 CALM      30.11F
PORT HURON     MOSUNNY   70  63  78 N7        30.10S
TRI CITIES     PTSUNNY   74  56  53 N6        30.12F
TROY           MOSUNNY   77  54  44 NW8       30.11R
SAGINAW HB     PTSUNNY   73  55  53 N5        30.10F
$$
MIZ043>046-050>051-056>058-064>065-071>073-077>080-272200-
SOUTHWEST LOWER MICHIGAN

CITY           SKY/WX    TMP DP  RH WIND       PRES   REMARKS
BATTLE CREEK   MOSUNNY   76  58  53 N10       30.13S
BENTON HARBOR  MOSUNNY   71  58  63 VRB5      30.14S
BIG RAPIDS     MOSUNNY   73  57  57 N9        30.13S
COLDWATER      MOSUNNY   79  58  48 N6        30.11R
FREMONT        FAIR      74  51  44 NW7       30.14R
HOLLAND        PTSUNNY   74  61  63 NW8       30.15S
GRAND RAPIDS   PTSUNNY   77  59  53 NW8       30.13S
IONIA          MOCLDY    75  57  53 CALM      30.12S
KALAMAZOO      MOSUNNY   77  57  50 N12       30.12S
LUDINGTON      SUNNY     69  54  57 NW10      30.17S
MARSHALL       MOSUNNY   74  59  57 N5        30.11S
MOUNT PLEASANT MOSUNNY   74  56  53 N6        30.11F
MUSKEGON       PTSUNNY   74  56  53 W12       30.15S
SOUTH HAVEN    PTSUNNY   72  60  64 N9        30.14S
$$
MIZ016>042-272200-
NORTHERN LOWER MICHIGAN

CITY           SKY/WX    TMP DP  RH WIND       PRES   REMARKS
ALPENA         PTSUNNY   70  48  45 NW15G23   30.12S
BEAVER ISLAND  SUNNY     67  52  58 W9        30.17R
BELLAIRE       MOSUNNY   68  49  50 NW8       30.17S
CADILLAC       PTSUNNY   70  54  57 N12       30.15R
CHARLEVOIX     SUNNY     67  51  57 NW12      30.19S
FRANKFORT      PTSUNNY   68  52  55 N6        30.18R
GAYLORD        MOSUNNY   63  46  54 NW14G20   30.16S
GRAYLING       MOSUNNY   67  49  53 W7        30.17R
HARBOR SPRINGS CLOUDY    65  51  62 W9        30.16S
HOUGHTON LAKE  PTSUNNY   71  52  50 NW14      30.15S
MANISTEE       SUNNY     68  52  56 NW9       30.18S
OSCODA         PTSUNNY   70  52  52 NW9       30.11S
PELLSTON       PTSUNNY   66  47  50 NW15G24   30.16S
TRAVERSE CITY  MOSUNNY   69  49  48 N9        30.16R
$$
MIZ007>008-015-272200-
EASTERN UPPER MICHIGAN

CITY           SKY/WX    TMP DP  RH WIND       PRES   REMARKS
KINROSS        PTSUNNY   63  45  51 NW20G26   30.13F
MACKINAC ISLAN PTSUNNY   64  48  56 NW9G16    30.14R
NEWBERRY       SUNNY     64  44  48 NW13G26   30.16S
S. S. MARIE    CLOUDY    62  45  53 NW15G23   30.14S
$$
MIZ004>006-011>014-085-272200-
CENTRAL UPPER MICHIGAN

CITY           SKY/WX    TMP DP  RH WIND       PRES   REMARKS
MANISTIQUE     MOSUNNY   67  46  46 N13       30.16R
ESCANABA       MOSUNNY   66  54  63 SE12      30.15F
MENOMINEE      MOSUNNY   72  52  49 N8        30.14F
SAWYER-GWINN   MOSUNNY   64  45  48 NE9       30.18S
$$
MIZ001>003-009>011-084-272200-
WESTERN UPPER MICHIGAN

CITY           SKY/WX    TMP DP  RH WIND       PRES   REMARKS
IRON MOUNTAIN  SUNNY     70  46  42 NW9       30.16S
HOUGHTON       SUNNY     64  44  48 NW13      30.17F
COPPER HARBOR    N/A     61  52  72 N15       30.17S
$$

ABBREVIATIONS USED IN REMARKS
   TC - TEMPERATURE IN CELSIUS
  WCI - WIND CHILL INDEX
   HX - HEAT INDEX
  VSB - VISIBILITY



USA.gov is the U.S. government's official web portal to all federal, state and local government web resources and services.